Andalusia, AL

10:10 PM CST on February 21, 2018 (GMT -0600)
Andalusia

Weather History for K79J - June, 2013

Change the Weather History Date:

Friday, June 21, 2013

  Actual Average (KCEW) Record (KCEW)
Temperature  
Mean Temperature 82 °F -  
Max Temperature 90 °F 90 °F 100 °F (2006)
Min Temperature 73 °F 68 °F 61 °F (2016)
Cooling Degree Days 16    
Growing Degree Days 32 (Base 50)    
Moisture  
Dew Point 69 °F    
Average Humidity 69    
Maximum Humidity 87    
Minimum Humidity 46    
Precipitation  
Precipitation 0.00 in - - ()
Sea Level Pressure  
Sea Level Pressure 30.11 in    
Wind  
Wind Speed 6 mph (ESE)    
Max Wind Speed 12 mph    
Max Gust Speed -    
Visibility 10 miles    
Events      
Averages and records for this station are not official NWS values.
T = Trace of Precipitation, MM = Missing Value Source: NWS Daily Summary

Daily Weather History Graph

Daily Weather History Graph

Search for Another Location

Airport or City:

Trip Planner

Search our weather history database for the weather conditions in past years. The results will help you decide how hot, cold, wet, or windy it might be!

Date:

Astronomy

Jun. 21, 2013 Rise Set
Actual Time 5:41 AM CDT 7:53 PM CDT
Civil Twilight 5:13 AM CDT 8:21 PM CDT
Nautical Twilight 4:39 AM CDT 8:55 PM CDT
Astronomical Twilight 4:02 AM CDT 9:32 PM CDT
Moon 6:07 PM CDT (6/21) 3:51 AM CDT (6/21)
Length of Visible Light 15h 07m
Length of Day
14h 11m
Waxing Gibbous, 95% of the Moon is Illuminated
Jun 21
Waxing Gibbous
Jun 23
Full
Jun 29
Last Quarter
Jul 8
New
Jul 15
First Quarter

Hourly Weather History & Observations

Time (CDT) Temp. Heat Index Dew Point Humidity Pressure Visibility Wind Dir Wind Speed Gust Speed Precip Events Conditions
12:56 AM 75.9 °F - 69.1 °F 79% 30.09 in 10.0 mi East 4.6 mph - N/A   Clear
1:56 AM 75.0 °F - 69.1 °F 82% 30.07 in 10.0 mi East 5.8 mph - N/A   Clear
2:56 AM 73.9 °F - 69.1 °F 85% 30.06 in 10.0 mi ESE 3.5 mph - N/A   Clear
3:56 AM 73.9 °F - 69.1 °F 85% 30.07 in 10.0 mi ESE 5.8 mph - N/A   Clear
4:56 AM 73.0 °F - 69.1 °F 87% 30.08 in 10.0 mi East 5.8 mph - N/A   Clear
5:56 AM 73.0 °F - 69.1 °F 87% 30.10 in 10.0 mi ESE 5.8 mph - N/A   Clear
6:56 AM 73.9 °F - 70.0 °F 87% 30.11 in 10.0 mi ESE 6.9 mph - N/A   Clear
7:16 AM 75.2 °F - 69.8 °F 83% 30.13 in 10.0 mi ESE 6.9 mph - N/A   Partly Cloudy
7:56 AM 77.0 °F - 70.0 °F 79% 30.13 in 10.0 mi ESE 9.2 mph - N/A   Scattered Clouds
8:12 AM 78.8 °F - 71.6 °F 78% 30.15 in 10.0 mi ESE 10.4 mph - N/A   Mostly Cloudy
8:30 AM 78.8 °F - 71.6 °F 78% 30.16 in 10.0 mi ESE 8.1 mph - N/A   Overcast
8:56 AM 79.0 °F - 71.1 °F 77% 30.14 in 10.0 mi ESE 9.2 mph - N/A   Overcast
9:21 AM 80.6 °F 84.6 °F 71.6 °F 74% 30.16 in 10.0 mi ESE 10.4 mph - N/A   Mostly Cloudy
9:56 AM 81.0 °F 84.4 °F 70.0 °F 69% 30.14 in 10.0 mi SE 10.4 mph - N/A   Mostly Cloudy
10:56 AM 82.9 °F 87.0 °F 70.0 °F 65% 30.15 in 10.0 mi East 9.2 mph - N/A   Mostly Cloudy
11:06 AM 84.2 °F 88.4 °F 69.8 °F 62% 30.16 in 10.0 mi East 9.2 mph - N/A   Mostly Cloudy
11:56 AM 87.1 °F 92.0 °F 70.0 °F 57% 30.15 in 10.0 mi East 6.9 mph - N/A   Partly Cloudy
12:56 PM 88.0 °F 92.1 °F 69.1 °F 53% 30.13 in 10.0 mi Variable 4.6 mph - N/A   Partly Cloudy
1:56 PM 89.1 °F 92.9 °F 68.0 °F 50% 30.12 in 10.0 mi East 8.1 mph - N/A   Scattered Clouds
2:56 PM 88.0 °F 90.7 °F 66.9 °F 49% 30.10 in 10.0 mi East 11.5 mph - N/A   Scattered Clouds
3:56 PM 90.0 °F 92.8 °F 66.9 °F 46% 30.09 in 10.0 mi ESE 8.1 mph - N/A   Partly Cloudy
4:56 PM 90.0 °F 92.8 °F 66.9 °F 46% 30.07 in 10.0 mi East 8.1 mph - N/A   Partly Cloudy
5:56 PM 89.1 °F 91.3 °F 66.0 °F 46% 30.07 in 10.0 mi East 8.1 mph - N/A   Clear
6:07 PM 87.8 °F 90.4 °F 66.2 °F 49% 30.08 in 10.0 mi East 9.2 mph - N/A   Partly Cloudy
6:56 PM 86.0 °F 88.8 °F 66.9 °F 53% 30.08 in 10.0 mi East 5.8 mph - N/A   Clear
7:56 PM 81.0 °F 83.8 °F 68.0 °F 65% 30.09 in 10.0 mi Calm Calm - N/A   Clear
8:56 PM 78.1 °F - 69.1 °F 74% 30.09 in 10.0 mi Calm Calm - N/A   Clear
9:56 PM 77.0 °F - 68.0 °F 74% 30.11 in 10.0 mi Calm Calm - N/A   Clear
10:56 PM 75.0 °F - 68.0 °F 79% 30.11 in 10.0 mi Calm Calm - N/A   Clear
11:56 PM 73.9 °F - 66.9 °F 79% 30.10 in 10.0 mi SE 3.5 mph - N/A   Clear